Regional Weather Roundup
Issued by NWS

Home | Current Version | Previous Version | Text Only | Print | Product List | Glossary Off
Versions: 1 2 3 4 5 6 7 8 9 10 11 12 13 14 15 16 17 18 19 20 21 22 23 24 25 26 27 28 29 30 31 32 33 34 35 36 37 38 39 40 41 42 43 44 45 46 47 48 49 50

000
ASUS43 KLSX 170507
RWRMO

WEATHER SUMMARY FOR MISSOURI
NATIONAL WEATHER SERVICE SPRINGFIELD MO
1200 AM CDT TUE OCT 17 2017

NOTE: "FAIR" INDICATES FEW OR NO CLOUDS BELOW 12,000 FEET WITH NO
       SIGNIFICANT WEATHER AND/OR OBSTRUCTIONS TO VISIBILITY.
       CURRENT SKY AND/OR WEATHER CONDITIONS ARE NOT AVAILABLE FOR
       CHILLICOTHE AND FARMINGTON.

MOZ001>031-035>038-043-044-053-054-170600-
...NORTHERN AND WESTERN MISSOURI...

CITY           SKY/WX    TMP DP  RH WIND       PRES   REMARKS
KANSAS CTY INT PTCLDY    51  42  71 S12       30.23F
KANSAS C DTWN  CLEAR     56  41  57 S7        30.23F
LEE`S SUMMIT   CLEAR     54  42  64 S13       30.24F
ST JOSEPH      CLOUDY    52  43  71 SW5       30.22R
CHILLICOTHE      N/A     52  43  71 S6        30.24F
KIRKSVILLE     CLEAR     51  42  71 S8        30.23F

$$
MOZ066>068-077>081-088>096-101>105-170600-
...SOUTHWEST MISSOURI...

CITY           SKY/WX    TMP DP  RH WIND       PRES   REMARKS
SPRINGFIELD    CLEAR     45  40  82 S3        30.29F
JOPLIN         CLEAR     47  45  93 CALM      30.30S
BRANSON        CLEAR     52  36  54 CALM      30.32R

$$
MOZ032>034-039>042-045>050-055>058-069>072-170600-
...CENTRAL MISSOURI...

CITY           SKY/WX    TMP DP  RH WIND       PRES   REMARKS
COLUMBIA       CLEAR     49  41  74 S7        30.28F
JEFFERSON CITY CLEAR     46  42  86 CALM      30.29S
ROLLA          CLEAR     47  38  71 S7        30.30F
SEDALIA        CLEAR     49  44  83 S7        30.29F
WHITEMAN AFB   CLEAR     48  41  76 S6        30.22F
WARRENSBURG    CLEAR     48  41  76 S5        30.26F
OSAGE BEACH    CLEAR     43  42  97 CALM      30.31S

$$
MOZ051-052-059>065-170600-
...EAST CENTRAL MISSOURI...

CITY           SKY/WX    TMP DP  RH WIND       PRES   REMARKS
ST LOUIS INTL  CLEAR     52  40  63 S5        30.29F
SPIRIT OF STL  CLEAR     43  42  97 CALM      30.29F
ST CHARLES     CLEAR     45  43  93 CALM      30.29F

$$
MOZ072>076-082>087-097>100-106>115-170600-
...SOUTH CENTRAL AND SOUTHEAST MISSOURI...

CITY           SKY/WX    TMP DP  RH WIND       PRES   REMARKS
CAPE GIRARDEAU CLEAR     41  39  93 CALM      30.32S
FARMINGTON     CLEAR     41  40  96 CALM      30.33F
POPLAR BLUFF   CLEAR     44  42  93 CALM      30.32S
WEST PLAINS    CLEAR     42  38  85 CALM      30.32F

$$


USA.gov is the U.S. government's official web portal to all federal, state and local government web resources and services.